Hourly Data Report for October 24, 2016

All times are specified in Local Standard Time (LST). Add 1 hour to adjust for Daylight Saving Time where and when it is observed.

MONCTON INTL A
NEW BRUNSWICK

46°06'44.000" N
64°40'43.000" W
70.70 m
8103201
71705
YQM

Download Data

Hourly Data (October 2016)
Hourly Data Report for October 24, 2016
Temp Definition
°C
Dew Point Temp Definition
°C
Rel Hum Definition
%
Wind Dir Definition
10's deg

Wind Spd Definition
km/h
Visibility Definition
km
Stn Press Definition
kPa
Hmdx Definition


Wind Chill Definition


Weather Definition


TIME
00:00 Legend Double Dagger 4.5 0.8 77 23 25 24.1 98.73     LegendNANA
01:00 Legend Double Dagger 5.0 -0.4 68 25 29 24.1 98.75     LegendNANA
02:00 Legend Double Dagger 4.2 -0.6 71 23 32 24.1 98.85     Mainly Clear
03:00 Legend Double Dagger 3.8 -0.2 75 23 25 24.1 98.91     LegendNANA
04:00 Legend Double Dagger 4.8 0.0 71 24 27 24.1 98.92     LegendNANA
05:00 Legend Double Dagger 5.5 -0.1 67 24 28 24.1 98.96     Mostly Cloudy
06:00 Legend Double Dagger 5.8 0.2 67 23 24 24.1 99.05     LegendNANA
07:00 Legend Double Dagger 6.0 -0.1 65 23 27 24.1 99.10     LegendNANA
08:00 Legend Double Dagger 6.1 -0.4 63 23 39 24.1 99.16     Mostly Cloudy
09:00 Legend Double Dagger 6.6 0.1 63 23 36 24.1 99.23     LegendNANA
10:00 Legend Double Dagger 8.1 -0.1 56 24 34 24.1 99.23     LegendNANA
11:00 Legend Double Dagger 8.3 -0.4 54 24 35 24.1 99.20     Mostly Cloudy
12:00 Legend Double Dagger 8.2 -0.3 55 25 27 24.1 99.16     LegendNANA
13:00 Legend Double Dagger 8.2 -0.5 54 26 35 24.1 99.18     LegendNANA
14:00 Legend Double Dagger 7.6 -0.4 57 25 26 24.1 99.18     Mostly Cloudy
15:00 Legend Double Dagger 7.0 -1.2 56 23 39 24.1 99.23     Rain Showers
16:00 Legend Double Dagger 5.3 1.2 75 25 22 24.1 99.33     Rain Showers
17:00 Legend Double Dagger 5.6 -0.9 63 23 24 24.1 99.36     Mostly Cloudy
18:00 Legend Double Dagger 5.4 -1.3 62 23 17 24.1 99.42     LegendNANA
19:00 Legend Double Dagger 4.9 -1.3 64 23 16 24.1 99.48     LegendNANA
20:00 Legend Double Dagger 4.6 -1.2 66 24 18 24.1 99.51     Mostly Cloudy
21:00 Legend Double Dagger 4.8 -2.1 61 24 22 24.1 99.60     LegendNANA
22:00 Legend Double Dagger 3.5 -2.1 67 24 18 24.1 99.60     LegendNANA
23:00 Legend Double Dagger 3.4 -1.6 70 24 23 24.1 99.61     Mainly Clear

Notes on Data Quality.

Legend

  • E = Estimated
  • M = Missing
  • NA = Not Available
  • ‡ = Partner data that is not subject to review by the National Climate Archives
Date modified: